Regional Weather Roundup
Issued by NWS Cleveland, OH

Home | Current Version | Previous Version | Graphics & Text | Print | Product List | Glossary On
Versions: 1 2 3 4 5 6 7 8 9 10 11 12 13 14 15 16 17 18 19 20 21 22 23 24 25 26 27 28 29 30 31 32 33 34 35 36 37 38 39 40 41 42 43 44 45 46 47 48 49 50
000
ASUS41 KCLE 281310
RWRCLE
OHIO REGIONAL WEATHER ROUNDUP
NATIONAL WEATHER SERVICE WILMINGTON, OH
900 AM EDT FRI JUL 28 2017

NOTE: "FAIR" INDICATES FEW OR NO CLOUDS BELOW 12,000 FEET WITH NO
SIGNIFICANT WEATHER AND/OR OBSTRUCTIONS TO VISIBILITY.

OHZ001>008-015>018-024>027-034-035-043-044-281400-
   NORTHWEST OHIO

CITY           SKY/WX    TMP DP  RH WIND       PRES   REMARKS
DEFIANCE       PTSUNNY   68  61  78 NE9       29.93R
FINDLAY        PTSUNNY   71  63  75 NE10      29.89F
TOLEDO EXPRESS FAIR      65  62  90 N7        29.92R
TOLEDO EXEC    CLOUDY    70  65  84 NE8       29.93R
LIMA           CLOUDY    67  67 100 NE8       29.90F
$$

OHZ009>014-019>023-028>033-038-089-281400-
   NORTHEAST OHIO

CITY           SKY/WX    TMP DP  RH WIND       PRES   REMARKS
CLE-HOPKINS    CLOUDY    75  68  78 N12       29.91R
CLE-LAKEFRONT  PTSUNNY   73  67  81 NE12      29.88R
CUY CO. ARPT   CLOUDY    72  70  94 NE9       29.91R
LORAIN-ELYRIA  FAIR      72  66  81 NE6       29.90R
ASHTABULA      FAIR      70  67  90 NE6       29.92R
AKRON-CANTON   PTSUNNY   71  64  78 NE8       29.88S
WOOSTER        FAIR      70  66  87 N6        29.90R
MANSFIELD      CLOUDY    68  68 100 N7        29.91R FOG
YOUNGSTOWN     CLOUDY    69  65  86 E6        29.89S
$$

OHZ042-051>053-060>062-070>072-077>081-281400-
  SOUTHWEST OHIO

CITY           SKY/WX    TMP DP  RH WIND       PRES   REMARKS
CINC-COVINGTON LGT RAIN  72  72 100 NE13      29.85S
CINC-LUNKEN    LGT RAIN  72  71  97 NE6       29.85S FOG
HAMILTON       LGT RAIN  73  71  93 E6        29.86R FOG
DAYTON         PTSUNNY   72  67  84 NE9       29.89R
WRIGHT-PAT AFB PTSUNNY   72  69  88 NE8       29.87R FOG
DAYTON GENERAL CLOUDY    71  68  90 NE6       29.87R
WILMINGTON     CLOUDY    71  71 100 NE7       29.87R
$$

OHZ036-037-039>041-045>050-054>059-063>069-073>076-082>088-281400-
  CENTRAL AND SOUTHEAST OHIO

CITY           SKY/WX    TMP DP  RH WIND       PRES   REMARKS
COLUMBUS       PTSUNNY   72  69  90 N7        29.86F
OSU AIRPORT    PTSUNNY   71  69  93 N7        29.87S FOG
BOLTON FIELD   CLOUDY    72  68  88 NE6       29.87S
RICKENBACK AFB CLOUDY    71  69  95 N7        29.85S
NEWARK         CLOUDY    71  66  84 VRB5      29.86F
MARION         CLOUDY    69  66  90 NE12      29.89F FOG
LANCASTER      CLOUDY    72  70  93 N6        29.85F
ZANESVILLE     CLOUDY    73  69  87 NE6       29.85F
NEW PHILLY     CLOUDY    71  69  93 N5        29.87F FOG
$$



USA.gov is the U.S. government's official web portal to all federal, state and local government web resources and services.